Regional Weather Roundup
Issued by NWS

Home | Current Version | Previous Version | Graphics & Text | Print | Product List | Glossary On
Versions: 1 2 3 4 5 6 7 8 9 10 11 12 13 14 15 16 17 18 19 20 21 22 23 24 25 26 27 28 29 30 31 32 33 34 35 36 37 38 39 40 41 42 43 44 45 46 47 48 49 50
802
ASUS43 KOAX 291902
RWRNE

WEATHER ROUNDUP FOR NEBRASKA
NATIONAL WEATHER SERVICE OMAHA NE
200 PM CDT MON AUG 29 2016

NOTES: SATELLITE DATA IS BEING USED TO AUGMENT CLOUD COVER ABOVE
       12000 FEET.
       "FAIR" INDICATES FEW OR NO CLOUDS BELOW 12,000 FEET WITH NO
       SIGNIFICANT WEATHER AND/OR OBSTRUCTIONS TO VISIBILITY.

  * THESE STATIONS DO NOT REPORT WEATHER SUCH AS RAIN...SNOW OR FOG.

NEZ001>004-019>022-054>056-292000-
NEBRASKA PANHANDLE

CITY           SKY/WX    TMP DP  RH WIND       PRES   REMARKS
SCOTTSBLUFF    CLOUDY    84  55  36 S9        30.24F
ALLIANCE       SUNNY     84  56  38 N8        30.24F
CHADRON        SUNNY     81  53  37 NE10      30.24F
KIMBALL        CLOUDY    83  49  30 E9        30.30S
SIDNEY         MOSUNNY   83  52  34 NE9       30.27F
$$

NEZ057>060-069>072-079>082-292000-
SOUTHWEST NEBRASKA

CITY           SKY/WX    TMP DP  RH WIND       PRES   REMARKS
NORTH PLATTE   CLOUDY    79  64  60 VRB6      30.23F
IMPERIAL       CLOUDY    77  61  57 SE9       30.24S
LEXINGTON      CLOUDY    77  65  66 SE10      30.23S
MCCOOK         CLOUDY    76  65  68 S7        30.22S
$$

NEZ005>010-023>029-035>040-094-292000-
NORTH CENTRAL NEBRASKA

CITY           SKY/WX    TMP DP  RH WIND       PRES   REMARKS
VALENTINE      SUNNY     89  56  32 VRB7      30.18F
AINSWORTH      MOSUNNY   85  63  48 SE8       30.19S
BROKEN BOW     CLOUDY    79  65  62 S9        30.22F
O`NEILL        CLOUDY    83  64  52 SE9       30.21R
ORD            CLOUDY    81  64  56 S8        30.20S
THEDFORD       CLOUDY    80  62  53 SE14      30.23S
$$

NEZ041-046>049-061>064-073>077-083>087-292000-
SOUTH CENTRAL NEBRASKA

CITY           SKY/WX    TMP DP  RH WIND       PRES   REMARKS
GRAND ISLAND   CLOUDY    79  68  69 VRB7      30.21F
AURORA         CLOUDY    82  70  68 E5        30.20S
HASTINGS       CLOUDY    81  68  64 S6        30.21F
HEBRON         PTSUNNY   85  72  65 E6        30.17F HX  90
HOLDREGE       LGT RAIN  73  65  77 SW3       30.23S
KEARNEY *      PTSUNNY   75  64  69 CALM      30.21S
YORK           CLOUDY    84  68  58 S6        30.19F
$$

NEZ011>018-030>034-042>045-292000-
NORTHEAST NEBRASKA

CITY           SKY/WX    TMP DP  RH WIND       PRES   REMARKS
NORFOLK        CLOUDY    80  66  62 VRB6      30.20F
ALBION         CLOUDY    78  67  67 SE6       30.21S
BLAIR          CLOUDY    82  72  72 CALM      30.19F
FREMONT        CLOUDY    82  71  71 CALM      30.19F
TEKAMAH        PTSUNNY   84  74  71 S7        30.18  HX  91
WAYNE          CLOUDY    78  70  77 S6        30.21F
$$

NEZ050>053-065>068-078-088>093-292000-
SOUTHEAST NEBRASKA

CITY           SKY/WX    TMP DP  RH WIND       PRES   REMARKS
LINCOLN        PTSUNNY   87  73  62 N7        30.18F HX  94
OMAHA EPPLEY   CLOUDY    86  72  62 SE7       30.17F HX  92
FALLS CITY     SUNNY     89  72  56 SE7       30.16F HX  96
NEBRASKA CITY  CLOUDY    83  74  75 SE5       30.18F HX  90
PLATTSMOUTH    CLOUDY    85  74  70 SE7       30.18F HX  92
$$

NEZ044-045-051>053-067-292000-
OMAHA AREA

CITY           SKY/WX    TMP DP  RH WIND       PRES   REMARKS
OMAHA EPPLEY   CLOUDY    86  72  62 SE7       30.17F HX  92
BLAIR          CLOUDY    82  72  72 CALM      30.19F
FREMONT        CLOUDY    82  71  71 CALM      30.19F
MILLARD        CLOUDY    86  73  66 SE6       30.17F HX  93
OFFUTT AFB     MOSUNNY   86  74  68 E8        30.16F HX  94
PLATTSMOUTH    CLOUDY    85  74  70 SE7       30.18F HX  92
WAHOO          FAIR      82  72  73 SE5       30.19F
$$




USA.gov is the U.S. government's official web portal to all federal, state and local government web resources and services.